Race Coverage Navigation

TS # 21 / Kim, CO  2019

 


TS STATS
TS Distance 71.31 
Total Distance 1272.31 
Miles To Go 1797.97 
TS Climbing 1223 
Total Climbing
TS  Elevation
TS  Net Elevation 1932 
Map Filename Open Map 
Directions Filename  
Latitude 37.25 
Longitude -103.36 
Google Map  TimeStation Map 


TS Arrival Data
Arr Ord  #/Name Arrival DT TS Dst Avg This TS Avg Overall Ascending
 1 605 - Christian Echavarria  06/17/2019 11:46 71.31  6.77  9.13 
 2 607 - Sabine Bird (Team Bean)  06/17/2019 9:58 71.31  6.85  9.22 
 3 161 - Seana Hogan  06/17/2019 5:20 71.31  15.56  9.55 
 4 608 - Elin Starup  06/17/2019 1:19 71.31  9.66  9.84 
 5 618 - GREGORY ROBINSON  06/17/2019 0:32 71.31  13.12  9.92 
 6 527 - TALABARDON (Herve Talabardon)  06/17/2019 0:17 71.31  8.9  9.95 
 7 424 - Team i RON man Veterans supporting Veterans  06/16/2019 21:52 71.31  11.63  10.15 
 8 539 - Kari Rouvinen  06/16/2019 20:31 71.31  11.98  10.26 
 9 399 - Valerio Zamboni  06/16/2019 18:14 71.31  10.75  10.46 
 10 610 - Kabir Rachure  06/16/2019 15:32 71.31  12.02  10.67 
 11 510 - John C. Tarlton  06/16/2019 11:30 71.31  12.93  11.06 
 12 411 - Geoff Brunner  06/16/2019 11:02 71.31  7.52  11.11 
 13 559 - Team Martin RAAM 2019 (Martin Bergmeister)  06/16/2019 9:38 71.31  7.49  11.24 
 14 442 - Joe Barr  06/16/2019 8:45 71.31  15.96  11.34 
 15 611 - Marcelo Soares " MIXIRICA "  06/16/2019 7:59 71.31  17.05  11.39 
 16 568 - Alexandra Meixner  06/16/2019 6:19 71.31  8.28  11.54 
 17 604 - Chieko Ozawa  06/16/2019 4:23 71.31  11.47  11.74 
 18 603 - Alan Bradley  06/16/2019 4:26 71.31  15.34  11.78 
 19 615 - Philipp Amhof  06/16/2019 4:12 71.31  9.05  11.79 
 20 367 - Daniela Genovesi  06/16/2019 1:22 71.31  15.28  12.09 
 21 623 - Ultra Paka Racing Team (Daniel Polman)  06/15/2019 22:41 71.31  11.06  12.41 
 22 416 - Leah Goldstein  06/15/2019 22:19 71.31  12.44  12.45 
 23 622 - Thomas Odom-Team Kyle Pease Foundation  06/15/2019 19:46 71.31  14.96  12.77 
 24 329 - Peter Oyler  06/15/2019 19:12 71.31  12.58  12.9 
 25 T205 - Prevent Breast Cancer powered by Endomag  06/19/2019 16:59 71.31  13.29  13 
 26 612 - Markus K. Brandl  06/15/2019 17:33 71.31  11.6  13.08 
 27 T210 - Bike Wine Team  06/19/2019 14:40 71.31  14.45  13.32 
 28 529 - Isa Pulver  06/15/2019 13:42 71.31  12.66  13.59 
 29 617 - SOLO.kiwi (Craig Harper)  06/15/2019 12:41 71.31  14.7  13.76 
 30 T203 - JPsDuo  06/19/2019 10:36 71.31  16.98  13.9 
 31 T208 - Team Machine  06/19/2019 10:34 71.31  12.02  13.92 
 32 T409 - Serpentine Golden Girls  06/19/2019 7:53 71.31  15.34  14.37 
 33 288 - Dave Haase  06/15/2019 8:55 71.31  17.61  14.41 
 34 609 - Jakob Olsen  06/15/2019 8:26 71.31  12.62  14.44 
 35 T207 - Team Life Time  06/19/2019 5:31 71.31  15.62  14.73 
 36 T200 - AIR RELAX GoPro TEAM BRASIL  06/19/2019 3:42 71.31  18.21  15.02 
 37 279 - Marko Baloh  06/15/2019 4:46 71.31  14.86  15.12 
 38 T417 - Team4RAAM 2019 powered by TGW Living Logistics  06/19/2019 2:36 71.31  17.54  15.3 
 39 T801 - Mind Over Matter  06/19/2019 1:07 71.31  16.65  15.59 
 40 T402 - EA/WFP RAAM Team  06/19/2019 0:03 71.31  18.93  15.74 
 41 T806 - Team SuperMarrow  06/18/2019 23:48 71.31  19.19  15.86 
 42 T413 - TEAM BRASIL - SKIPPER  06/18/2019 22:30 71.31  17.39  16.08 
 43 T204 - Lucan CRC  06/18/2019 21:39 71.31  14.36  16.19 
 44 T415 - TEAM FIRE VELO 935  06/18/2019 21:00 71.31  15.01  16.4 
 45 T206 - Project Linear Acceleration  06/18/2019 19:32 71.31  17.18  16.65 
 46 T405 - High Rollers  06/18/2019 19:16 71.31  16.65  16.74 
 47 T803 - Team EndoPark  06/18/2019 18:45 71.31  17.54  16.92 
 48 T202 - Integra Medical - BAA Racing  06/18/2019 17:58 71.31  18.44  16.98 
 49 T414 - Brazil Nuts  06/18/2019 17:50 71.31  16.39  17.09 
 50 T403 - EKJ Denmark  06/18/2019 17:28 71.31  18.85  17.14 
 51 T410 - Soap-Aid  06/18/2019 16:45 71.31  20.37  17.33 
 52 377 - Christoph Strasser  06/14/2019 17:52 71.31  18.93  17.38 
 53 T418 - The Opportunists  06/18/2019 15:30 71.31  17.75  17.66 
 54 T406 - Operation Walk Midwest  06/18/2019 12:33 71.31  20.47  18.36 
 55 T808 - Antonia's Friends 2019  06/18/2019 12:53 71.31  20.18  18.37 
 56 T400 - Cantastic4  06/18/2019 12:16 71.31  20.67  18.41 
 57 T408 - Radeln-fuer-Kinder (Cycling-for-Kids)  06/18/2019 11:46 71.31  23.25  18.58 
 58 T804 - Team FSHD Skyland Trail  06/18/2019 11:51 71.31  22.17  18.63 
 59 T416 - Team Rotary Raams Polio  06/18/2019 10:58 71.31  21.83  18.84 
 60 T802 - Scorchers  06/18/2019 10:36 71.31  23.38  18.97 
 61 T412 - Team Aspect  06/18/2019 10:18 71.31  23  19.01 
 62 T407 - Julian Becker   06/18/2019 8:57 71.31  21.94  19.38 
 63 T807 - Team ZOE International  06/18/2019 9:02 71.31  21.72  19.44 
 64 T201 - EAT WELL  06/18/2019 7:35 71.31  20.97  19.71 
 65 T805 - Team Oceanside  06/18/2019 8:08 71.31  20.67  19.71 
 66 T404 - Gentlemen of speed  06/18/2019 3:51 71.31  23.9  20.99 
 67 T401 - Data Techniques powered by Networks Centre  06/18/2019 3:25 71.31  22.52  21.12 
 68 T800 - Backstedt Racing Project 14  06/18/2019 1:01 71.31  23.9  22.11 
 69 T411 - team alpha - tischlerei groemmer  06/18/2019 0:20 71.31  22.28  22.33